Date,TemperatureHighF,TemperatureAvgF,TemperatureLowF,DewpointHighF,DewpointAvgF,DewpointLowF,HumidityHigh,HumidityAvg,HumidityLow,PressureMaxIn,PressureMinIn,WindSpeedMaxMPH,WindSpeedAvgMPH,GustSpeedMaxMPH,PrecipitationSumIn
2013-1-1,35.4,32.8,31.1,29.6,27.5,21.1,87,81,63,30.09,29.99,2,0,2,0.01
2013-1-2,33.6,24.1,11.5,19.3,13.1,5.4,78,63,51,30.24,30.11,4,1,4,0.01
2013-1-3,38.1,22.3,9.1,19.9,11.2,1.0,76,63,40,30.24,30.17,8,2,8,0.11
2013-1-4,37.9,33.5,26.2,23.3,20.0,14.5,69,58,47,30.31,30.22,13,5,13,0.06
2013-1-5,43.5,31.0,16.7,28.0,21.2,9.7,79,67,53,30.36,30.18,6,1,6,0.00
2013-1-6,38.8,34.6,28.0,31.4,27.3,19.8,81,74,71,30.30,30.00,11,3,11,0.01
2013-1-7,40.8,34.0,28.8,26.8,24.4,21.6,79,68,56,30.48,30.30,11,2,11,0.00
2013-1-8,50.4,35.4,21.6,33.7,25.8,16.1,84,69,51,30.35,30.22,5,1,5,0.00
2013-1-9,52.5,42.4,29.5,42.4,35.7,24.5,87,77,58,30.51,30.19,12,2,12,0.06
2013-1-10,42.1,33.6,25.9,32.9,27.5,21.1,87,78,66,30.56,30.17,5,1,5,0.01
2013-1-11,64.6,53.6,42.1,56.0,47.9,32.3,92,82,60,30.16,29.91,11,2,11,0.26
2013-1-12,66.0,57.6,43.7,59.4,54.2,41.5,96,89,74,30.06,29.96,8,1,8,0.00
2013-1-13,64.6,55.8,40.3,59.8,52.3,38.1,93,88,75,30.08,29.78,11,3,11,0.48
2013-1-14,40.1,33.2,26.6,38.0,25.6,19.0,92,74,60,30.41,30.08,6,2,7,0.01
2013-1-15,37.4,30.8,24.1,26.7,21.5,18.2,79,69,58,30.39,30.07,8,1,8,0.00
2013-1-16,37.2,34.5,32.5,26.0,24.3,22.8,70,66,62,30.09,29.94,8,2,8,0.00
2013-1-17,39.9,35.3,27.7,30.1,26.5,14.8,78,70,58,30.32,30.06,7,1,7,0.00
2013-1-18,39.0,26.8,17.8,19.9,13.5,7.7,73,58,41,30.52,30.33,9,2,9,0.00
2013-1-19,56.7,46.7,36.5,26.1,23.6,20.3,57,42,26,30.17,29.94,15,6,15,0.00
2013-1-20,44.8,34.5,26.6,31.3,13.0,5.6,60,41,28,30.20,29.86,11,4,11,0.00
2013-1-21,26.4,21.4,10.9,14.4,6.2,-8.9,66,52,39,30.19,30.03,13,4,13,0.00
2013-1-22,20.5,13.9,7.2,-5.3,-10.3,-14.4,46,33,23,30.34,30.18,11,4,11,0.00
2013-1-23,22.6,18.6,10.9,8.7,-2.5,-8.4,65,40,26,30.32,30.08,11,3,11,0.00
2013-1-24,28.6,19.0,14.2,10.9,4.9,1.0,67,54,38,30.55,30.07,8,2,8,0.01
2013-1-25,24.4,19.9,17.2,13.4,8.5,-0.5,70,61,43,30.45,30.02,8,2,8,0.00
2013-1-26,32.2,28.9,23.9,21.5,18.3,13.1,74,64,55,30.38,30.09,8,2,8,0.01
2013-1-27,39.6,30.1,10.9,26.3,15.9,3.1,78,56,46,30.48,30.23,8,2,8,0.14
2013-1-28,50.9,45.8,32.5,48.4,43.0,27.4,93,90,81,30.21,30.02,12,2,12,0.38
2013-1-29,70.7,58.6,47.7,55.2,52.0,46.2,95,79,57,30.06,29.68,13,3,13,0.00
2013-1-30,65.3,52.9,36.0,55.4,46.4,26.1,89,79,67,29.66,29.26,16,5,16,0.39
2013-1-31,36.0,27.5,22.3,26.6,14.5,6.7,76,58,44,29.91,29.47,21,4,21,0.00
2013-2-1,20.7,14.0,8.2,9.7,-1.9,-5.9,66,49,41,30.35,29.94,12,4,12,0.01
2013-2-2,28.0,22.1,9.9,19.9,13.1,-2.9,72,68,55,30.31,29.99,8,3,8,0.00
2013-2-3,26.8,23.0,21.2,18.6,13.0,7.5,75,65,54,30.08,29.87,9,3,9,0.00
2013-2-4,31.3,26.9,12.7,24.6,18.2,4.8,83,70,53,30.09,29.85,7,1,7,0.00
2013-2-5,33.4,31.2,27.9,26.9,23.0,20.9,85,72,61,29.94,29.84,6,2,6,0.05
2013-2-6,45.3,35.2,22.8,26.9,20.9,15.0,76,57,39,30.30,29.99,5,1,5,0.09
2013-2-7,53.1,38.9,23.0,31.7,25.6,15.0,73,60,42,30.26,29.84,4,1,8,0.00
2013-2-8,41.9,34.4,27.3,32.8,25.5,15.2,80,70,59,30.30,29.83,14,5,14,0.15
2013-2-9,41.7,34.2,18.7,22.3,18.3,10.8,76,53,42,30.42,30.30,5,2,5,0.00
2013-2-10,50.9,41.0,27.7,28.4,23.1,13.9,59,49,39,30.26,29.95,5,2,5,0.00
2013-2-11,55.9,47.9,39.9,45.6,30.9,24.1,86,53,36,30.00,29.75,21,7,21,0.01
2013-2-12,49.8,40.5,30.6,27.6,24.3,20.8,68,53,39,30.13,29.91,15,3,15,0.00
2013-2-13,34.3,32.3,28.9,27.8,25.3,21.1,79,75,69,29.92,29.76,4,1,4,0.02
2013-2-14,47.1,36.5,23.0,37.1,30.8,17.2,85,80,68,29.92,29.83,10,3,10,0.01
2013-2-15,39.4,34.6,27.3,33.2,27.3,21.1,85,75,65,30.13,29.96,6,1,6,0.04
2013-2-16,31.3,26.2,17.1,21.5,15.4,9.6,77,64,50,30.11,29.98,8,0,8,0.00
2013-2-17,31.5,23.1,14.2,11.9,7.1,0.5,63,50,36,30.22,30.05,7,1,7,0.01
2013-2-18,53.2,43.3,24.3,32.7,23.4,7.9,55,45,39,30.17,29.78,11,3,11,0.00
2013-2-19,49.8,32.8,25.5,37.9,22.2,12.2,83,65,47,30.03,29.65,18,1,18,0.22
2013-2-20,26.6,23.2,18.1,13.0,6.8,3.6,65,49,42,30.25,30.06,0,0,0,0.01
2013-2-21,32.4,27.5,21.9,17.9,14.0,9.2,65,56,53,30.36,30.21,6,1,6,0.00
2013-2-22,43.3,35.4,27.0,38.3,29.2,13.3,88,78,56,30.17,29.93,10,2,10,0.06
2013-2-23,48.9,40.0,35.2,30.1,26.6,20.6,78,60,43,29.98,29.89,8,2,8,0.00
2013-2-24,35.8,31.9,28.4,21.8,18.6,17.0,71,58,49,30.12,29.92,8,3,8,0.00
2013-2-25,50.5,40.5,21.2,28.9,24.0,14.5,81,53,37,30.20,29.99,8,2,8,0.00
2013-2-26,43.2,39.4,34.9,40.1,32.9,19.9,89,78,52,29.99,29.48,9,2,9,0.64
2013-2-27,43.7,39.0,34.5,40.4,34.0,27.8,88,82,75,29.71,29.50,17,4,17,0.21
2013-2-28,38.3,35.4,32.4,34.2,30.3,26.7,86,81,75,29.89,29.64,14,2,14,0.06
2013-3-1,35.8,34.2,32.2,27.1,25.1,22.7,77,69,59,30.00,29.89,8,3,8,0.00
2013-3-2,32.2,29.4,27.1,22.3,20.2,16.7,75,68,61,30.03,29.97,11,3,11,0.01
2013-3-3,33.8,29.1,25.2,17.8,15.4,13.2,71,57,45,30.05,29.99,14,3,14,0.00
2013-3-4,45.5,36.9,16.5,19.8,14.2,8.9,76,41,24,30.16,30.05,7,2,7,0.00
2013-3-5,41.4,37.2,31.5,28.7,25.5,2.7,82,63,51,30.10,29.55,36,2,36,0.06
2013-3-6,41.4,36.3,33.1,35.0,30.2,26.3,84,79,71,30.20,29.54,8,2,8,0.50
2013-3-7,48.6,40.4,32.5,33.5,28.8,25.0,74,63,52,30.32,30.18,11,3,11,0.00
2013-3-8,54.1,40.5,28.0,30.1,25.7,19.8,75,57,34,30.46,30.33,7,2,7,0.00
2013-3-9,62.1,40.7,25.5,33.6,27.0,18.7,81,60,28,30.39,30.08,9,2,9,0.00
2013-3-10,74.1,66.1,46.9,39.1,34.6,28.9,63,32,21,30.08,29.88,22,3,22,0.00
2013-3-11,61.5,53.2,48.7,52.1,47.5,37.8,94,83,42,29.88,29.60,17,3,17,0.41
2013-3-12,42.3,37.6,33.1,36.2,30.6,28.1,85,76,64,30.01,29.82,12,4,12,0.01
2013-3-13,36.1,31.2,28.9,31.3,21.7,17.0,91,68,53,30.25,29.95,15,5,15,0.00
2013-3-14,47.7,37.8,23.5,22.8,18.2,14.2,69,47,31,30.31,30.17,12,4,12,0.00
2013-3-15,52.9,42.7,27.0,41.5,32.6,18.1,92,68,55,30.14,29.85,11,3,11,0.09
2013-3-16,57.9,48.8,36.1,50.2,44.7,31.2,98,86,73,29.96,29.62,13,3,13,0.08
2013-3-17,41.9,36.6,33.1,30.2,27.7,24.8,83,70,59,30.18,30.02,9,3,9,0.00
2013-3-18,50.9,41.3,32.7,50.1,39.1,25.6,98,92,70,30.07,29.62,18,4,18,0.94
2013-3-19,41.9,35.8,31.1,36.6,21.8,14.6,82,57,36,30.03,29.79,27,6,27,0.01
2013-3-20,42.8,34.2,24.6,22.0,15.8,8.2,55,47,34,30.00,29.91,17,6,17,0.00
2013-3-21,33.4,27.9,20.3,19.4,14.0,7.2,68,56,41,30.00,29.88,11,4,11,0.00
2013-3-22,48.7,38.2,23.0,22.9,18.7,13.3,67,46,28,30.05,29.96,12,4,12,0.00
2013-3-23,55.4,42.1,25.2,29.3,24.5,18.4,82,53,27,30.08,30.01,8,2,8,0.00
2013-3-24,38.8,35.8,32.0,29.6,25.8,20.4,86,67,51,29.94,29.44,13,3,13,0.00
2013-3-25,36.1,33.9,32.4,32.3,30.9,29.4,93,88,83,29.87,29.39,9,2,9,0.28
2013-3-26,46.6,39.6,33.3,36.0,30.5,22.3,90,71,46,30.16,29.87,10,4,10,0.11
2013-3-27,48.4,40.4,34.2,32.5,27.9,21.9,79,62,41,30.25,30.13,13,4,13,0.00
2013-3-28,55.4,41.3,28.4,29.8,24.8,20.1,72,54,34,30.31,30.22,11,4,11,0.00
2013-3-29,59.4,46.1,26.6,34.4,28.9,21.6,88,54,31,30.31,30.19,13,3,13,0.00
2013-3-30,62.4,43.6,26.6,37.7,28.6,22.0,89,61,22,30.25,30.09,9,2,9,0.00
2013-3-31,56.8,48.7,41.5,48.4,44.0,26.8,95,84,53,29.95,29.75,12,3,12,0.06
2013-4-1,49.8,44.9,38.5,41.5,22.9,13.0,83,44,27,30.03,29.75,13,5,13,0.00
2013-4-2,48.6,38.1,23.5,20.6,15.8,10.6,62,41,24,30.25,30.10,15,4,15,0.00
2013-4-3,53.4,38.0,22.5,21.0,14.4,9.1,65,41,22,30.42,30.24,12,3,12,0.00
2013-4-4,53.8,37.6,28.8,19.2,14.2,10.3,52,40,20,30.36,30.14,6,2,6,0.00
2013-4-5,66.7,52.8,27.9,37.5,27.7,21.0,77,42,22,30.17,29.95,11,3,11,0.00
2013-4-6,59.2,44.6,31.1,22.8,17.2,11.1,58,35,20,30.27,30.12,10,4,10,0.00
2013-4-7,75.2,65.1,51.1,47.0,41.5,19.1,48,42,27,29.95,29.85,15,6,15,0.00
2013-4-8,75.2,65.9,52.5,54.8,52.2,41.5,90,62,45,30.00,29.89,17,4,17,0.00
2013-4-9,85.3,68.8,52.0,60.8,55.9,50.0,95,67,41,30.09,29.94,19,3,19,0.00
2013-4-10,85.1,72.0,61.5,64.8,60.2,56.5,87,68,49,29.98,29.81,19,5,19,0.00
2013-4-11,69.4,62.9,56.5,64.9,60.0,54.0,98,90,82,29.90,29.59,9,2,9,0.24
2013-4-12,60.3,47.6,44.2,60.0,40.3,34.0,99,76,64,29.91,29.49,15,5,15,0.18
2013-4-13,54.5,46.8,42.3,38.5,35.8,33.6,77,66,53,29.99,29.90,16,6,17,0.00
2013-4-14,70.9,54.7,34.0,45.2,40.1,31.4,96,61,35,30.13,29.93,8,2,8,0.00
2013-4-15,73.8,66.8,46.6,54.9,51.1,40.3,85,58,49,30.02,29.92,9,3,10,0.00
2013-4-16,82.6,69.1,56.5,66.1,60.0,51.4,96,74,47,30.19,29.98,13,4,13,0.44
2013-4-17,69.8,61.5,42.6,63.0,58.0,16.8,99,89,35,30.23,30.02,10,2,10,0.05
2013-4-18,89.1,77.3,58.1,66.4,61.0,50.3,98,61,28,30.03,29.72,24,6,24,0.00
2013-4-19,74.1,49.3,41.9,61.7,40.7,31.0,95,73,53,29.95,29.47,28,7,28,0.40
2013-4-20,51.6,44.2,34.3,35.0,29.1,24.7,89,56,39,30.40,29.95,18,4,18,0.01
2013-4-21,60.3,44.9,28.4,33.1,27.5,22.5,88,54,30,30.57,30.41,6,1,6,0.00
2013-4-22,74.1,50.0,37.8,44.9,32.8,26.2,67,54,29,30.42,30.19,4,1,4,0.00
2013-4-23,75.9,64.4,46.6,46.1,39.4,31.9,57,41,31,30.18,30.02,9,3,9,0.00
2013-4-24,64.2,52.3,36.1,57.6,48.4,13.1,98,87,60,30.21,29.79,11,3,11,0.58
2013-4-25,58.1,46.4,31.6,42.3,35.5,27.8,99,69,44,30.37,30.20,12,3,12,0.00
2013-4-26,66.6,49.4,31.1,40.5,34.8,28.4,97,61,28,30.48,30.36,4,1,4,0.00
2013-4-27,73.6,59.5,37.2,43.4,39.0,30.8,96,52,22,30.36,30.25,7,2,7,0.00
2013-4-28,66.0,58.9,54.3,64.0,57.0,45.9,99,94,65,30.11,29.85,4,1,4,0.46
2013-4-29,58.6,57.4,56.7,58.4,57.1,56.4,99,99,99,29.98,29.89,4,1,4,0.00
2013-4-30,81.7,67.1,40.5,62.0,55.4,16.8,99,69,35,30.09,29.92,8,2,8,2.66
2013-5-1,87.6,74.8,56.3,64.2,59.3,53.0,90,61,37,30.23,30.08,9,2,9,0.00
2013-5-2,79.2,68.2,56.8,58.1,54.1,50.4,83,61,45,30.27,30.13,8,2,8,0.00
2013-5-3,82.9,71.5,57.6,56.8,43.0,30.8,87,40,18,30.15,30.03,18,3,18,0.00
2013-5-4,76.3,68.5,56.5,51.6,46.6,41.2,66,46,37,30.09,29.99,11,4,11,0.00
2013-5-5,76.6,66.2,52.9,45.8,43.3,38.2,74,45,28,30.05,29.92,11,3,11,0.00
2013-5-6,71.6,62.6,40.5,59.5,51.8,16.8,96,69,32,30.23,29.94,5,1,5,0.01
2013-5-7,73.4,64.9,55.2,63.0,58.8,54.4,99,81,62,29.99,29.93,7,2,7,0.01
2013-5-8,80.1,67.8,53.2,58.5,56.5,52.7,99,70,44,29.98,29.91,7,1,7,0.00
2013-5-9,85.8,71.2,52.3,62.5,57.3,51.5,99,65,34,30.03,29.95,8,2,8,0.00
2013-5-10,74.7,65.9,60.1,66.1,62.6,58.4,99,90,71,29.98,29.82,18,2,18,0.66
2013-5-11,62.1,53.1,23.5,61.5,48.0,11.4,98,84,35,30.24,29.83,9,2,9,3.35
2013-5-12,56.7,49.6,38.7,41.3,34.9,30.1,97,59,38,30.05,29.95,15,5,15,0.00
2013-5-13,64.4,50.7,36.0,37.9,32.7,24.5,96,54,25,30.19,30.08,18,2,18,0.00
2013-5-14,79.0,60.2,37.2,57.8,45.2,33.7,95,62,33,30.15,29.82,20,2,20,0.00
2013-5-15,91.0,78.0,63.3,62.9,59.5,57.1,85,56,34,29.85,29.78,19,4,19,0.00
2013-5-16,81.3,70.8,64.6,67.0,63.4,56.6,99,79,44,30.00,29.83,11,2,11,0.13
2013-5-17,85.5,70.1,61.5,69.3,61.9,52.9,99,78,45,30.11,29.99,11,1,11,0.00
2013-5-18,85.8,70.7,61.7,62.0,57.0,52.0,78,63,38,30.10,30.00,8,1,8,0.00
2013-5-19,85.3,72.2,61.5,67.6,62.8,58.4,92,73,52,30.04,29.94,8,1,8,0.00
2013-5-20,90.1,75.9,64.8,72.2,65.6,62.4,93,73,42,30.03,29.90,11,2,11,0.00
2013-5-21,90.5,78.5,69.6,67.8,63.6,53.7,91,63,31,29.95,29.82,12,3,12,0.01
2013-5-22,85.3,74.0,64.2,63.9,60.7,58.5,89,65,43,29.87,29.75,20,3,20,0.01
2013-5-23,78.8,65.8,50.9,63.2,57.3,44.6,91,76,41,30.58,29.79,15,4,15,0.00
2013-5-24,65.8,53.3,44.4,44.6,38.7,33.9,81,60,32,30.31,30.05,10,2,10,0.00
2013-5-25,61.3,43.1,37.4,43.7,37.7,35.3,93,82,50,30.36,30.29,8,0,8,0.00
2013-6-9,84.6,74.2,65.7,66.0,60.1,55.3,85,64,38,30.10,29.96,8,2,8,0.01
2013-6-10,81.3,70.4,67.1,67.2,64.6,61.2,93,83,53,29.95,29.78,10,2,10,0.37
2013-6-11,88.5,74.5,62.2,65.0,62.3,59.7,93,69,38,29.95,29.84,7,2,7,0.00
2013-6-12,90.1,79.7,68.9,72.8,68.5,62.7,87,70,53,29.94,29.74,7,2,7,0.00
2013-6-13,81.9,71.7,64.2,72.0,61.7,51.3,93,73,41,29.89,29.59,8,3,8,0.58
2013-6-14,82.4,69.4,57.4,60.9,56.4,53.1,93,66,39,30.07,29.89,5,1,5,0.00
2013-6-15,81.7,70.0,54.0,60.4,57.3,51.4,93,66,41,30.12,29.98,6,1,6,0.00
2013-6-16,80.4,74.6,68.5,66.9,64.9,59.5,88,72,58,29.99,29.94,11,3,11,0.02
2013-6-17,88.5,76.1,67.3,70.5,65.7,58.0,93,72,43,29.99,29.89,9,1,9,0.00
2013-6-18,86.9,73.1,64.6,69.2,64.0,54.9,91,75,40,30.02,29.86,9,1,9,0.19
2013-6-19,84.4,68.9,54.9,58.6,51.1,13.1,91,58,24,30.16,30.01,6,1,6,0.00
2013-6-20,88.2,70.9,53.2,57.3,52.4,47.6,91,57,27,30.24,30.15,8,1,8,0.00
2013-6-21,91.2,75.5,58.5,62.8,57.2,52.3,91,58,28,30.25,27.22,11,1,11,0.00
2013-6-22,92.3,78.5,64.9,70.4,64.2,60.9,90,64,39,30.19,30.06,10,2,10,0.01
2013-6-23,93.2,79.3,66.4,70.6,64.7,59.1,92,64,38,30.16,30.04,11,2,11,0.00
2013-6-24,90.1,77.9,64.9,71.1,65.3,61.0,91,67,43,30.17,30.02,14,2,14,0.01
2013-6-25,94.1,81.4,69.6,72.6,68.3,64.8,88,67,40,30.09,29.89,17,3,17,0.01
2013-6-26,88.9,76.3,68.2,72.1,67.8,62.9,93,77,50,29.95,29.82,16,2,16,0.12
2013-6-27,88.5,75.6,67.8,72.6,67.9,65.6,93,79,51,29.84,29.68,13,2,13,0.27
2013-6-28,86.4,76.2,66.6,69.1,64.0,53.5,89,68,40,29.70,29.57,18,2,18,0.00
2013-6-29,83.8,70.9,62.2,65.3,61.5,58.7,90,74,49,29.68,29.59,122,2,122,0.00
2013-10-21,69.8,54.9,40.1,47.9,38.8,34.6,91,59,28,30.00,29.86,6,0,6,0.00
2013-10-22,57.2,46.3,35.2,47.4,32.0,19.7,86,61,25,30.02,29.88,6,1,6,0.00
2013-10-23,47.7,41.2,35.8,40.6,36.3,32.1,93,83,58,29.99,29.76,7,2,7,0.00
2013-10-24,49.6,39.5,32.7,35.3,30.9,24.6,89,72,42,30.20,29.98,9,2,9,0.00
2013-10-25,53.6,39.6,28.6,34.5,27.9,24.5,89,66,35,30.38,30.21,6,1,6,0.00
2013-10-26,48.9,41.0,32.0,34.7,27.7,24.2,74,60,39,30.25,29.91,16,3,16,0.00
2013-10-27,59.7,41.3,30.7,40.4,32.7,27.9,93,74,32,30.10,30.01,3,0,3,0.00
2013-10-28,66.2,45.5,30.9,41.7,33.7,28.3,93,69,28,30.29,30.08,3,0,3,0.00
2013-10-29,61.9,47.9,34.7,45.9,38.3,31.8,93,72,38,30.36,30.22,3,0,3,0.33
2013-10-30,67.5,56.7,49.1,57.3,49.5,41.3,91,77,67,30.22,30.02,5,1,5,0.00
2013-10-31,66.4,62.5,59.7,59.9,57.7,55.8,93,85,69,30.03,29.37,17,3,17,0.60
2013-11-1,64.2,56.2,51.4,61.4,51.9,45.5,92,86,76,29.69,29.33,19,5,19,0.24
2013-11-3,48.9,41.9,31.3,37.9,35.9,28.7,90,79,65,30.41,30.19,6,0,6,1.17
2013-11-4,59.4,46.2,36.1,40.8,35.3,29.5,82,67,42,30.44,30.32,8,1,8,0.00
2013-11-5,64.8,54.2,48.6,45.0,41.2,39.3,75,62,44,30.43,30.25,5,1,5,0.00
2013-11-6,69.8,57.5,44.6,59.8,47.9,37.2,99,72,44,30.25,29.95,13,2,13,0.37
2013-11-7,52.7,44.8,36.5,50.8,36.0,27.4,98,73,41,30.19,29.98,11,3,11,0.05
2013-11-8,52.0,40.3,33.6,37.0,32.4,28.6,88,74,46,30.34,30.15,9,2,9,0.00
2013-11-9,62.6,47.7,35.2,33.9,31.6,29.2,83,58,31,30.25,29.98,18,3,18,0.00
2013-11-10,59.7,43.7,30.7,40.4,32.2,27.9,93,67,32,30.11,29.92,8,1,8,0.00
2013-11-11,55.8,44.4,30.9,42.2,36.4,28.3,94,75,39,30.20,30.03,10,3,10,1.60
2013-11-12,41.4,31.7,26.4,32.6,25.1,19.7,95,77,60,30.56,30.20,10,2,10,0.05
2013-11-13,42.4,32.0,22.5,23.3,18.8,8.8,81,60,26,30.58,30.36,12,2,12,0.00
2013-11-14,55.4,35.9,27.9,25.9,20.9,14.5,72,56,21,30.37,30.15,12,2,12,0.00
2013-11-15,55.6,45.6,32.5,41.5,27.5,21.6,78,51,29,30.19,30.09,14,2,14,0.00
2013-11-16,61.2,53.6,46.2,54.6,48.5,40.6,89,83,74,30.16,29.93,8,2,8,0.00
2013-11-17,62.1,59.2,52.5,60.5,55.6,41.5,99,89,57,29.94,29.50,25,4,25,0.70
2013-11-18,55.2,46.8,36.9,42.4,36.0,25.8,85,67,42,30.14,29.74,19,5,19,0.00
2013-11-19,49.3,37.5,29.3,30.4,26.3,23.5,84,64,46,30.36,30.14,9,2,9,0.00
2013-11-20,52.2,38.6,27.3,32.6,27.4,21.4,84,65,43,30.36,30.24,11,2,11,0.00
2013-11-21,59.0,47.9,38.8,46.0,39.1,28.6,95,72,55,30.34,30.20,6,1,6,0.19
2013-11-22,49.1,48.6,48.4,48.6,47.2,46.1,98,95,91,30.21,30.17,2,0,2,0.04